Location: Chena
(64.8152°N, 147.9227°W)
Time: 08:20:40
(UTC+00:00)

N. Korean satellite - Pass Details

Date: 27 January 2021
Orbit: 451 x 502 km, 97.2° (Epoch: 08 March)

Event Time Altitude Azimuth Distance (km) Brightness Sun altitude
Rises 14:44:12 0° 21° (NNE) 2,533 10.6 -25.0°
Reaches altitude 10° 14:46:33 10° 35° (NE) 1,641 9.8 -24.8°
Maximum altitude 14:49:29 25° 92° (E) 995 8.8 -24.5°
Drops below altitude 10° 14:52:23 10° 149° (SSE) 1,610 9.4 -24.1°
Sets 14:54:40 0° 163° (SSE) 2,473 10.3 -23.9°
